Location: Newark
(50.4348°N, 30.5552°E)
Time: 09:03:28
(UTC+00:00)

Envisat - Visible Passes

Search period start: 08 December 2019 00:00
Search period end: 18 December 2019 00:00
Orbit: 764 x 766 km, 98.1° (Epoch: 08 December)

Date Brightness Start Highest point End Pass type
(mag) Time Alt. Az. Time Alt. Az. Time Alt. Az.
08 Dec 4.7 04:14:18 10° NNE 04:19:00 36° E 04:23:41 10° SSE visible
08 Dec 2.9 15:33:23 10° SSE 15:38:27 76° ENE 15:43:33 10° NNW visible
08 Dec 5.7 17:14:42 10° SW 17:18:04 18° W 17:21:27 10° NW visible
09 Dec 5.8 03:38:20 10° NE 03:41:53 19° E 03:45:24 10° SE visible
09 Dec 3.4 14:57:09 10° SE 15:01:50 39° ENE 15:06:32 10° N visible
09 Dec 4.6 16:36:19 10° SSW 16:40:55 34° W 16:45:33 10° NNW visible
10 Dec 3.7 04:39:35 10° NNE 04:44:38 59° E 04:49:39 10° S visible
10 Dec 3.3 15:58:54 10° S 16:03:58 68° WSW 16:09:03 10° NNW visible
10 Dec 6.2 17:43:09 10° W 17:43:58 10° W 17:44:47 10° WNW visible
11 Dec 5.1 04:03:11 10° NNE 04:07:39 30° E 04:12:04 10° SSE visible
11 Dec 3.0 15:22:12 10° SSE 15:27:12 62° ENE 15:32:14 10° N visible
11 Dec 5.4 17:02:48 10° SW 17:06:40 21° W 17:10:32 10° NW visible
12 Dec 6.0 03:27:31 10° NE 03:30:27 15° E 03:33:21 10° ESE visible
12 Dec 3.0 05:05:03 10° NNE 05:10:10 86° WNW 05:15:16 10° SSW visible
12 Dec 3.6 14:46:09 10° SE 14:50:38 33° ENE 14:55:08 10° N visible
12 Dec 4.2 16:24:46 10° SSW 16:29:34 42° W 16:34:24 10° NNW visible
13 Dec 4.1 04:28:22 10° NNE 04:33:18 48° E 04:38:13 10° S visible
13 Dec 3.0 15:47:35 10° SSE 15:52:40 83° WSW 15:57:47 10° NNW visible
13 Dec 6.0 17:30:09 10° WSW 17:32:30 13° W 17:34:52 10° WNW visible
14 Dec 5.4 03:52:06 10° NE 03:56:16 25° E 04:00:22 10° SE visible
14 Dec 3.1 15:11:04 10° SE 15:15:58 51° ENE 15:20:53 10° N visible
14 Dec 5.1 16:51:02 10° SSW 16:55:15 26° W 16:59:31 10° NW visible
15 Dec 6.2 03:16:58 10° ENE 03:18:59 12° E 03:21:01 10° ESE visible
15 Dec 3.2 04:53:46 10° NNE 04:58:53 78° ESE 05:03:58 10° S visible
15 Dec 3.9 14:35:13 10° ESE 14:39:27 27° ENE 14:43:42 10° N visible
15 Dec 3.8 16:13:17 10° S 16:18:13 51° W 16:23:12 10° NNW visible
16 Dec 4.5 04:17:11 10° NNE 04:21:58 39° E 04:26:43 10° SSE visible
16 Dec 2.9 15:36:18 10° SSE 15:41:23 81° ENE 15:46:30 10° NNW visible
16 Dec 5.8 17:17:55 10° SW 17:21:03 16° W 17:24:12 10° NW visible
17 Dec 5.7 03:41:07 10° NE 03:44:52 20° E 03:48:34 10° SE visible
17 Dec 3.3 14:59:58 10° SE 15:04:44 42° ENE 15:09:31 10° N visible
17 Dec 4.8 16:39:22 10° SSW 16:43:52 32° W 16:48:25 10° NNW visible
